�������l�o���
Date,Time,MP-1(��Sv/h),MP-2(��Sv/h),MP-3(��Sv/h),MP-4(��Sv/h),MP-5(��Sv/h),MP-6(��Sv/h),MP-7(��Sv/h),MP-8(��Sv/h),����,����(m/s),���J
2018/11/11,00:00,0.758,1.142,0.802,1.428,1.026,0.451,0.792,0.748,���k��,5.0,��
2018/11/11,00:10,0.762,1.141,0.803,1.430,1.028,0.451,0.792,0.749,���k��,4.7,��
2018/11/11,00:20,0.761,1.144,0.803,1.431,1.030,0.451,0.793,0.750,���k��,5.1,��
2018/11/11,00:30,0.760,1.142,0.802,1.427,1.028,0.450,0.794,0.750,���k��,3.6,��
2018/11/11,00:40,0.760,1.142,0.801,1.429,1.028,0.451,0.791,0.748,���k��,3.2,��
2018/11/11,00:50,0.760,1.141,0.800,1.428,1.028,0.451,0.793,0.752,�k��,1.7,��
2018/11/11,01:00,0.759,1.143,0.802,1.428,1.026,0.451,0.793,0.749,���쐼,1.7,��
2018/11/11,01:10,0.759,1.142,0.801,1.432,1.028,0.452,0.794,0.748,�k��,3.8,��
2018/11/11,01:20,0.760,1.141,0.800,1.430,1.027,0.453,0.793,0.749,���k��,4.1,��
2018/11/11,01:30,0.758,1.140,0.800,1.430,1.027,0.452,0.793,0.750,�k��,4.1,��
2018/11/11,01:40,0.758,1.142,0.803,1.428,1.028,0.452,0.793,0.750,�k�k��,2.2,��
2018/11/11,01:50,0.759,1.143,0.803,1.430,1.029,0.451,0.794,0.750,�k��,3.1,��
2018/11/11,02:00,0.759,1.143,0.804,1.428,1.028,0.452,0.792,0.748,���k��,8.5,��
2018/11/11,02:10,0.759,1.146,0.802,1.429,1.029,0.451,0.793,0.749,���k��,8.7,��
2018/11/11,02:20,0.759,1.143,0.802,1.431,1.027,0.452,0.793,0.750,��,9.0,��
2018/11/11,02:30,0.760,1.141,0.802,1.432,1.027,0.452,0.794,0.750,���k��,7.4,��
2018/11/11,02:40,0.759,1.142,0.803,1.432,1.027,0.452,0.793,0.750,���k��,6.8,��
2018/11/11,02:50,0.760,1.142,0.803,1.428,1.029,0.452,0.791,0.750,��,7.1,��
2018/11/11,03:00,0.761,1.140,0.804,1.429,1.027,0.451,0.793,0.749,��,7.2,��
2018/11/11,03:10,0.759,1.141,0.802,1.431,1.028,0.452,0.792,0.751,��,6.9,��
2018/11/11,03:20,0.757,1.143,0.802,1.430,1.028,0.453,0.791,0.750,���k��,6.8,��
2018/11/11,03:30,0.761,1.144,0.802,1.431,1.029,0.453,0.792,0.750,��,5.1,��
2018/11/11,03:40,0.759,1.141,0.803,1.430,1.029,0.453,0.792,0.750,��,4.2,��
2018/11/11,03:50,0.760,1.144,0.803,1.430,1.028,0.454,0.793,0.751,��,4.1,��
2018/11/11,04:00,0.758,1.142,0.804,1.431,1.027,0.453,0.792,0.749,��,3.0,��
2018/11/11,04:10,0.759,1.142,0.802,1.429,1.028,0.454,0.791,0.751,��,2.2,��
2018/11/11,04:20,0.758,1.143,0.803,1.429,1.030,0.454,0.792,0.750,��,2.6,��
2018/11/11,04:30,0.758,1.139,0.803,1.430,1.029,0.453,0.794,0.749,��,3.0,��
2018/11/11,04:40,0.759,1.143,0.803,1.434,1.027,0.453,0.792,0.751,��,3.1,��
2018/11/11,04:50,0.760,1.142,0.801,1.431,1.029,0.454,0.792,0.752,��,4.0,��
2018/11/11,05:00,0.760,1.142,0.803,1.432,1.028,0.452,0.792,0.750,���쐼,4.3,��
2018/11/11,05:10,0.758,1.141,0.802,1.430,1.027,0.452,0.793,0.750,��,4.4,��
2018/11/11,05:20,0.760,1.142,0.803,1.429,1.026,0.454,0.791,0.752,��,4.6,��
2018/11/11,05:30,0.759,1.140,0.803,1.429,1.028,0.453,0.793,0.750,��,4.3,��
2018/11/11,05:40,0.759,1.143,0.803,1.429,1.029,0.452,0.794,0.751,��,5.5,��
2018/11/11,05:50,0.760,1.141,0.801,1.431,1.029,0.454,0.793,0.750,��,6.0,��
2018/11/11,06:00,0.759,1.142,0.801,1.432,1.028,0.453,0.792,0.751,��,6.1,��
2018/11/11,06:10,0.760,1.141,0.801,1.431,1.028,0.452,0.794,0.751,��,5.2,��
2018/11/11,06:20,0.759,1.141,0.801,1.431,1.029,0.454,0.793,0.751,��,4.7,��
2018/11/11,06:30,0.759,1.141,0.800,1.428,1.028,0.452,0.794,0.751,��,4.9,��
2018/11/11,06:40,0.759,1.143,0.804,1.430,1.026,0.454,0.791,0.750,���k��,4.8,��
2018/11/11,06:50,0.760,1.142,0.803,1.431,1.027,0.453,0.793,0.750,��,5.7,��
2018/11/11,07:00,0.762,1.141,0.803,1.430,1.028,0.453,0.792,0.751,��,6.1,��
2018/11/11,07:10,0.760,1.143,0.805,1.431,1.027,0.453,0.793,0.750,��,6.0,��
2018/11/11,07:20,0.759,1.141,0.803,1.430,1.029,0.453,0.794,0.752,��,6.1,��
2018/11/11,07:30,0.760,1.144,0.802,1.434,1.028,0.453,0.794,0.751,��,6.5,��
2018/11/11,07:40,0.760,1.143,0.805,1.432,1.028,0.453,0.794,0.752,��,6.9,��
2018/11/11,07:50,0.761,1.144,0.803,1.431,1.028,0.453,0.794,0.751,��,5.2,��
2018/11/11,08:00,0.760,1.144,0.802,1.433,1.029,0.455,0.793,0.750,���k��,5.6,��
2018/11/11,08:10,0.760,1.143,0.805,1.432,1.028,0.454,0.792,0.751,���k��,5.9,��
2018/11/11,08:20,0.761,1.143,0.805,1.433,1.027,0.454,0.791,0.751,��,5.2,��
2018/11/11,08:30,0.762,1.146,0.805,1.433,1.030,0.455,0.792,0.754,��,4.8,��
2018/11/11,08:40,0.762,1.145,0.806,1.434,1.030,0.456,0.793,0.752,��,4.6,��
2018/11/11,08:50,0.761,1.144,0.804,1.433,1.033,0.454,0.792,0.752,��,3.8,��
2018/11/11,09:00,0.761,1.145,0.806,1.432,1.031,0.455,0.792,0.751,��,3.9,��
2018/11/11,09:10,0.764,1.145,0.804,1.434,1.031,0.453,0.794,0.751,��,3.2,��
2018/11/11,09:20,0.762,1.144,0.805,1.432,1.032,0.454,0.795,0.751,��,2.0,��
2018/11/11,09:30,0.761,1.143,0.805,1.432,1.032,0.455,0.793,0.753,���k��,2.0,��
2018/11/11,09:40,0.762,1.146,0.807,1.433,1.033,0.455,0.792,0.752,��,1.7,��
2018/11/11,09:50,0.761,1.144,0.805,1.435,1.032,0.455,0.792,0.752,�쐼,0.9,��
2018/11/11,10:00,0.762,1.145,0.804,1.435,1.029,0.453,0.793,0.752,�쐼,1.5,��
2018/11/11,10:10,0.761,1.144,0.805,1.435,1.030,0.453,0.792,0.753,��,0.9,��
2018/11/11,10:20,0.761,1.145,0.806,1.434,1.029,0.454,0.792,0.752,-,CALM,��
2018/11/11,10:30,0.763,1.146,0.806,1.435,1.031,0.452,0.793,0.751,��,0.6,��
2018/11/11,10:40,0.762,1.145,0.803,1.435,1.032,0.453,0.794,0.753,���쓌,2.0,��
2018/11/11,10:50,0.763,1.144,0.804,1.437,1.030,0.453,0.794,0.754,��,2.6,��
2018/11/11,11:00,0.763,1.146,0.804,1.437,1.032,0.453,0.793,0.753,�k��,2.5,��
2018/11/11,11:10,0.763,1.148,0.805,1.436,1.033,0.453,0.796,0.753,�k��,1.9,��
2018/11/11,11:20,0.765,1.147,0.805,1.435,1.031,0.454,0.793,0.753,�k�k��,1.4,��
2018/11/11,11:30,0.763,1.150,0.807,1.437,1.032,0.453,0.794,0.753,�k��,4.5,��
2018/11/11,11:40,0.765,1.145,0.805,1.439,1.033,0.453,0.795,0.752,�k�k��,2.3,��
2018/11/11,11:50,0.761,1.148,0.807,1.438,1.035,0.455,0.793,0.753,�k��,2.2,��
2018/11/11,12:00,0.763,1.147,0.807,1.438,1.035,0.452,0.795,0.752,���쐼,2.2,��
2018/11/11,12:10,0.763,1.149,0.805,1.438,1.036,0.453,0.795,0.752,���쐼,1.7,��
2018/11/11,12:20,0.763,1.146,0.808,1.437,1.034,0.455,0.794,0.752,��,0.9,��
2018/11/11,12:30,0.763,1.149,0.805,1.438,1.035,0.455,0.795,0.751,�k��,0.9,��
2018/11/11,12:40,0.763,1.146,0.805,1.437,1.035,0.456,0.793,0.748,���k��,1.9,��
2018/11/11,12:50,0.765,1.150,0.808,1.440,1.038,0.455,0.795,0.750,�k��,3.4,��
2018/11/11,13:00,0.765,1.150,0.805,1.440,1.037,0.454,0.794,0.750,�k�k��,1.2,��
2018/11/11,13:10,0.764,1.152,0.806,1.438,1.036,0.455,0.798,0.749,�쓌,1.9,��
2018/11/11,13:20,0.763,1.151,0.807,1.438,1.039,0.453,0.796,0.751,��쓌,4.2,��
2018/11/11,13:30,0.765,1.152,0.810,1.437,1.036,0.454,0.795,0.749,��,0.9,��
2018/11/11,13:40,0.764,1.153,0.808,1.439,1.037,0.452,0.795,0.751,���k��,1.2,��
2018/11/11,13:50,0.764,1.153,0.807,1.437,1.037,0.454,0.795,0.750,��,2.3,��
2018/11/11,14:00,0.764,1.153,0.808,1.440,1.037,0.453,0.796,0.751,���쓌,1.7,��
2018/11/11,14:10,0.763,1.149,0.807,1.441,1.036,0.454,0.797,0.750,�k,1.5,��
2018/11/11,14:20,0.762,1.153,0.810,1.441,1.037,0.453,0.796,0.752,�k�k��,0.6,��
2018/11/11,14:30,0.764,1.152,0.808,1.441,1.038,0.452,0.796,0.750,�k��,1.2,��
2018/11/11,14:40,0.763,1.152,0.808,1.440,1.037,0.456,0.796,0.751,�k�k��,1.4,��
2018/11/11,14:50,0.764,1.153,0.808,1.439,1.040,0.454,0.796,0.750,�쓌,1.9,��
2018/11/11,15:00,0.763,1.152,0.808,1.441,1.038,0.453,0.796,0.751,���쐼,1.2,��
2018/11/11,15:10,0.765,1.152,0.807,1.441,1.039,0.454,0.795,0.752,���k��,3.7,��
2018/11/11,15:20,0.764,1.154,0.808,1.441,1.038,0.455,0.796,0.753,��,3.5,��
2018/11/11,15:30,0.762,1.155,0.806,1.443,1.036,0.454,0.795,0.751,��,5.0,��
2018/11/11,15:40,0.763,1.157,0.806,1.442,1.038,0.452,0.795,0.751,��,4.7,��
2018/11/11,15:50,0.764,1.155,0.807,1.440,1.039,0.455,0.795,0.752,��,4.3,��
2018/11/11,16:00,0.763,1.155,0.807,1.446,1.037,0.455,0.795,0.752,��,4.3,��
2018/11/11,16:10,0.762,1.153,0.808,1.442,1.037,0.457,0.796,0.753,��,4.1,��
2018/11/11,16:20,0.764,1.156,0.809,1.441,1.038,0.456,0.794,0.751,���k��,3.7,��
2018/11/11,16:30,0.766,1.155,0.808,1.440,1.038,0.456,0.796,0.753,�k�k��,3.6,��
2018/11/11,16:40,0.764,1.154,0.808,1.440,1.040,0.456,0.797,0.754,�k��,3.7,��
2018/11/11,16:50,0.767,1.153,0.811,1.443,1.039,0.456,0.797,0.755,�k��,3.1,��
2018/11/11,17:00,0.766,1.157,0.810,1.441,1.041,0.457,0.795,0.753,�k��,2.9,��
2018/11/11,17:10,0.764,1.155,0.808,1.439,1.041,0.455,0.797,0.753,�k��,3.3,��
2018/11/11,17:20,0.765,1.156,0.810,1.441,1.039,0.455,0.795,0.754,�k��,2.8,��
2018/11/11,17:30,0.765,1.155,0.808,1.443,1.039,0.454,0.796,0.755,�k��,2.2,��
2018/11/11,17:40,0.765,1.158,0.810,1.442,1.041,0.457,0.799,0.752,�k��,2.2,��
2018/11/11,17:50,0.765,1.155,0.807,1.444,1.040,0.456,0.797,0.752,�k��,1.5,��
2018/11/11,18:00,0.765,1.154,0.809,1.442,1.043,0.456,0.796,0.754,���k��,1.2,��
2018/11/11,18:10,0.765,1.152,0.809,1.441,1.041,0.456,0.795,0.755,�k��,2.0,��
2018/11/11,18:20,0.765,1.154,0.809,1.443,1.041,0.456,0.796,0.753,�k��,2.2,��
2018/11/11,18:30,0.766,1.154,0.809,1.440,1.041,0.457,0.797,0.752,�k��,3.4,��
2018/11/11,18:40,0.767,1.154,0.807,1.443,1.040,0.455,0.796,0.752,�k��,3.0,��
2018/11/11,18:50,0.766,1.154,0.809,1.441,1.040,0.454,0.796,0.754,�k��,2.8,��
2018/11/11,19:00,0.764,1.155,0.807,1.441,1.040,0.455,0.795,0.754,�k�k��,3.5,��
2018/11/11,19:10,0.765,1.154,0.810,1.441,1.042,0.456,0.794,0.754,�k��,2.8,��
2018/11/11,19:20,0.765,1.153,0.807,1.441,1.042,0.455,0.795,0.754,�k��,2.8,��
2018/11/11,19:30,0.765,1.154,0.808,1.443,1.040,0.455,0.795,0.753,�k��,3.2,��
2018/11/11,19:40,0.764,1.153,0.809,1.440,1.040,0.456,0.796,0.753,�k��,3.7,��
2018/11/11,19:50,0.765,1.155,0.809,1.441,1.042,0.456,0.796,0.753,�k��,2.6,��
2018/11/11,20:00,0.766,1.153,0.809,1.442,1.039,0.456,0.797,0.754,�k��,1.7,��
2018/11/11,20:10,0.764,1.154,0.807,1.440,1.040,0.456,0.796,0.752,�k��,1.5,��
2018/11/11,20:20,0.764,1.152,0.809,1.441,1.041,0.454,0.797,0.753,�k��,1.4,��
2018/11/11,20:30,0.764,1.153,0.812,1.442,1.041,0.456,0.794,0.752,-,CALM,��
2018/11/11,20:40,0.767,1.156,0.810,1.443,1.040,0.454,0.796,0.755,�k,0.6,��
2018/11/11,20:50,0.764,1.153,0.809,1.441,1.040,0.455,0.796,0.752,�k�k��,1.2,��
2018/11/11,21:00,0.767,1.155,0.810,1.440,1.041,0.456,0.794,0.752,�k,0.8,��
2018/11/11,21:10,0.765,1.157,0.808,1.443,1.041,0.453,0.796,0.755,�k�k��,0.9,��
2018/11/11,21:20,0.764,1.156,0.808,1.442,1.042,0.454,0.797,0.753,���k��,1.1,��
2018/11/11,21:30,0.766,1.154,0.808,1.442,1.041,0.455,0.797,0.754,-,CALM,��
2018/11/11,21:40,0.766,1.154,0.808,1.444,1.040,0.456,0.796,0.753,���k��,1.2,��
2018/11/11,21:50,0.764,1.152,0.810,1.443,1.043,0.455,0.796,0.753,�k��,0.9,��
2018/11/11,22:00,0.765,1.157,0.810,1.442,1.041,0.454,0.795,0.753,�k,0.9,��
2018/11/11,22:10,0.765,1.155,0.809,1.442,1.041,0.455,0.794,0.754,�k,0.6,��
2018/11/11,22:20,0.767,1.154,0.808,1.441,1.041,0.456,0.793,0.755,�k,0.9,��
2018/11/11,22:30,0.764,1.153,0.809,1.441,1.041,0.456,0.796,0.754,�k�k��,1.2,��
2018/11/11,22:40,0.766,1.155,0.809,1.441,1.039,0.454,0.796,0.754,�k,1.2,��
2018/11/11,22:50,0.765,1.155,0.808,1.445,1.039,0.455,0.795,0.754,�k,2.0,��
2018/11/11,23:00,0.766,1.154,0.810,1.441,1.041,0.455,0.796,0.753,�k,1.9,��
2018/11/11,23:10,0.764,1.155,0.809,1.444,1.040,0.455,0.794,0.753,�k�k��,1.7,��
2018/11/11,23:20,0.765,1.154,0.809,1.443,1.039,0.456,0.796,0.754,�k,1.4,��
2018/11/11,23:30,0.766,1.155,0.810,1.444,1.042,0.456,0.796,0.752,�k,1.7,��
2018/11/11,23:40,0.764,1.154,0.809,1.442,1.041,0.456,0.796,0.752,�k,1.7,��
2018/11/11,23:50,0.766,1.154,0.810,1.443,1.042,0.457,0.796,0.753,�k,1.2,��
